Weather History for KGFK - May, 2013

Change the Weather History Date:

Saturday, May 11, 2013

  Actual Average Record
Temperature  
Mean Temperature 39 °F 53 °F  
Max Temperature 50 °F 67 °F 95 °F (1906)
Min Temperature 28 °F 40 °F 22 °F (2008)
Degree Days  
Heating Degree Days 26 12  
Month to date heating degree days 217 154  
Since 1 July heating degree days 9769 9232  
Cooling Degree Days 0 0  
Month to date cooling degree days 0 0  
Year to date cooling degree days 0 1  
Moisture  
Dew Point 25 °F    
Average Humidity 56    
Maximum Humidity 82    
Minimum Humidity 29    
Precipitation  
Precipitation 0.00 in 0.08 in 1.38 in (2004)
Month to date precipitation 0.00 0.81  
Year to date precipitation 3.38 3.85  
Snow  
Snow 0.00 in 0.00 in - ()
Month to date snowfall 0.0 0.1  
Since 1 July snowfall 50.2 47.4  
Snow Depth 0.00 in    
Sea Level Pressure  
Sea Level Pressure 30.26 in    
Wind  
Wind Speed 18 mph (NNW)    
Max Wind Speed 35 mph    
Max Gust Speed 40 mph    
Visibility 10 miles    
Events      
T = Trace of Precipitation, MM = Missing Value Source: NWS Daily Summary

Daily Weather History Graph

Daily Weather History Graph

Search for Another Location

Airport or City:

Trip Planner

Search our weather history database for the weather conditions in past years. The results will help you decide how hot, cold, wet, or windy it might be!

Date:

Astronomy

May. 11, 2013 Rise Set
Actual Time 5:55 AM CDT 8:55 PM CDT
Civil Twilight 5:18 AM CDT 9:32 PM CDT
Nautical Twilight 4:31 AM CDT 10:19 PM CDT
Astronomical Twilight 3:34 AM CDT 11:17 PM CDT
Moon 7:01 AM CDT (5/11) 10:39 PM CDT (5/11)
Length of Visible Light 16h 13m
Length of Day
15h 00m
Waxing Crescent, 3% of the Moon is Illuminated
May 11
Waxing Crescent
May 17
First Quarter
May 24
Full
May 31
Last Quarter
Jun 8
New

Hourly Weather History & Observations

Time (CDT) Temp. Windchill Dew Point Humidity Pressure Visibility Wind Dir Wind Speed Gust Speed Precip Events Conditions
12:53 AM 41.0 °F 32.2 °F 30.0 °F 65% 30.17 in 10.0 mi NNW 18.4 mph - N/A   Overcast
1:53 AM 37.0 °F 29.3 °F 32.0 °F 82% 30.17 in 10.0 mi NW 11.5 mph - N/A   Partly Cloudy
2:53 AM 36.0 °F 25.6 °F 30.9 °F 82% 30.19 in 10.0 mi NNW 18.4 mph - N/A   Clear
3:53 AM 36.0 °F 26.0 °F 30.0 °F 79% 30.20 in 10.0 mi NNW 17.3 mph - N/A   Partly Cloudy
4:53 AM 35.1 °F 24.8 °F 28.9 °F 78% 30.23 in 10.0 mi NNW 17.3 mph - N/A   Clear
5:53 AM 35.1 °F 25.2 °F 28.9 °F 78% 30.25 in 10.0 mi NNW 16.1 mph - N/A   Scattered Clouds
6:53 AM 35.1 °F 25.5 °F 28.9 °F 78% 30.27 in 10.0 mi NW 15.0 mph - N/A   Clear
7:53 AM 37.0 °F 25.6 °F 26.1 °F 65% 30.28 in 10.0 mi NNW 24.2 mph 32.2 mph N/A   Scattered Clouds
8:53 AM 37.9 °F 25.9 °F 25.0 °F 60% 30.30 in 10.0 mi NNW 28.8 mph 39.1 mph N/A   Scattered Clouds
9:53 AM 39.0 °F 28.0 °F 26.1 °F 60% 30.31 in 10.0 mi North 25.3 mph 34.5 mph N/A   Mostly Cloudy
10:53 AM 42.1 °F 32.1 °F 27.0 °F 55% 30.31 in 10.0 mi NNW 25.3 mph 33.4 mph N/A   Mostly Cloudy
11:53 AM 44.1 °F 34.8 °F 26.1 °F 49% 30.30 in 10.0 mi North 25.3 mph 34.5 mph N/A   Scattered Clouds
12:53 PM 45.0 °F 35.2 °F 26.1 °F 48% 30.30 in 10.0 mi NNW 29.9 mph 35.7 mph N/A   Mostly Cloudy
1:53 PM 46.9 °F - 26.1 °F 44% 30.30 in 10.0 mi North 24.2 mph 32.2 mph N/A   Scattered Clouds
2:53 PM 48.0 °F - 23.0 °F 37% 30.29 in 10.0 mi North 21.9 mph 34.5 mph N/A   Scattered Clouds
3:53 PM 48.9 °F - 21.9 °F 35% 30.28 in 10.0 mi NW 21.9 mph 31.1 mph N/A   Partly Cloudy
4:53 PM 50.0 °F - 21.0 °F 32% 30.27 in 10.0 mi North 25.3 mph 32.2 mph N/A   Partly Cloudy
5:53 PM 48.9 °F - 21.0 °F 33% 30.27 in 10.0 mi North 23.0 mph 27.6 mph N/A   Partly Cloudy
6:53 PM 48.0 °F - 18.0 °F 30% 30.26 in 10.0 mi North 17.3 mph 27.6 mph N/A   Clear
7:53 PM 46.0 °F 39.6 °F 19.0 °F 34% 30.25 in 10.0 mi North 15.0 mph - N/A   Clear
8:53 PM 41.0 °F 34.3 °F 21.0 °F 45% 30.26 in 10.0 mi North 11.5 mph - N/A   Clear
9:53 PM 37.0 °F 31.0 °F 21.9 °F 54% 30.26 in 10.0 mi North 8.1 mph - N/A   Clear
10:53 PM 33.1 °F 26.9 °F 23.0 °F 66% 30.25 in 10.0 mi NNW 6.9 mph - N/A   Clear
11:53 PM 33.1 °F 26.1 °F 21.0 °F 61% 30.26 in 10.0 mi NW 8.1 mph - N/A   Clear